Weather History for Kerkyra, Greece

Change the Weather History Date:

Wednesday, March 7, 2012

  Actual Average Record
Temperature  
Mean Temperature 53 °F -  
Max Temperature 56 °F 62 °F 71 °F (2002)
Min Temperature 50 °F 45 °F 35 °F (2004)
Degree Days  
Heating Degree Days 12    
Growing Degree Days 3 (Base 50)    
Moisture  
Dew Point 51 °F    
Average Humidity 92    
Maximum Humidity 100    
Minimum Humidity 82    
Precipitation  
Precipitation 0.31 in 0.12 in - ()
Sea Level Pressure  
Sea Level Pressure 30.13 in    
Wind  
Wind Speed 5 mph ()    
Max Wind Speed 12 mph    
Max Gust Speed -    
Visibility 5.9 miles    
Events Rain    
Averages and records for this station are not official NWS values.
T = Trace of Precipitation, MM = Missing Value Source: Averaged Metar Reports

Daily Weather History Graph

Daily Weather History Graph

Search for Another Location

Airport:

Trip Planner

Search our weather history database for the weather conditions in past years. The results will help you decide how hot, cold, wet, or windy it might be!

Date:

Astronomy

Mar. 07, 2012 Rise Set
Actual Time 7:03 AM EET 6:39 PM EET
Civil Twilight 6:37 AM EET 7:06 PM EET
Nautical Twilight 6:05 AM EET 7:37 PM EET
Astronomical Twilight 5:34 AM EET 8:08 PM EET
Moon 5:54 PM EET (3/7) 6:03 AM EET (3/7)
Length of Visible Light 12h 28m
Length of Day
11h 35m
Waxing Gibbous, 99% of the Moon is Illuminated
Mar 7
Waxing Gibbous
Mar 8
Full
Mar 15
Last Quarter
Mar 22
New
Mar 30
First Quarter

Hourly Weather History & Observations

Time (EET) Temp. Dew Point Humidity Pressure Visibility Wind Dir Wind Speed Gust Speed Precip Events Conditions
12:20 AM 53.6 °F 50.0 °F 88% 30.09 in 6.2 mi East 6.9 mph - N/A Rain Light Rain
12:50 AM 53.6 °F 50.0 °F 88% 30.09 in 6.2 mi East 4.6 mph - N/A Rain Light Rain
1:20 AM 51.8 °F 50.0 °F 94% 30.09 in 6.2 mi NE 4.6 mph - N/A Rain Light Rain
1:50 AM 51.8 °F 50.0 °F 94% 30.09 in 5.6 mi ENE 4.6 mph - N/A Rain Light Rain
2:00 AM 52 °F 50 °F 89% 30.11 in 6 mi ENE 4.6 mph - - Rain Light Rain
2:20 AM 51.8 °F 50.0 °F 94% 30.09 in 6.2 mi East 4.6 mph - N/A Rain Light Rain
2:50 AM 51.8 °F 50.0 °F 94% 30.09 in 5.0 mi East 6.9 mph - N/A Rain Light Rain
3:20 AM 51.8 °F 50.0 °F 94% 30.09 in 5.6 mi East 6.9 mph - N/A Rain Light Rain
3:50 AM 51.8 °F 50.0 °F 94% 30.09 in 6.2 mi SE 8.1 mph - N/A Rain Light Rain
4:20 AM 51.8 °F 50.0 °F 94% 30.09 in 6.2 mi SE 5.8 mph - N/A Rain Light Rain
4:50 AM 51.8 °F 50.0 °F 94% 30.09 in 5.0 mi ESE 6.9 mph - N/A Rain Light Rain
5:20 AM 51.8 °F 50.0 °F 94% 30.09 in 4.3 mi Calm Calm - N/A Rain Light Rain
5:50 AM 51.8 °F 50.0 °F 94% 30.09 in 4.3 mi Calm Calm - N/A Rain Light Rain
6:20 AM 51.8 °F 51.8 °F 100% 30.09 in 4.3 mi SSW 5.8 mph - N/A Rain Light Rain
6:50 AM 51.8 °F 51.8 °F 100% 30.09 in 5.0 mi East 4.6 mph - N/A Rain Light Rain
7:20 AM 51.8 °F 50.0 °F 94% 30.12 in 6.2 mi East 3.5 mph - N/A Rain Light Rain
7:50 AM 51.8 °F 50.0 °F 94% 30.12 in 6.2 mi SE 4.6 mph - N/A Rain Light Rain
8:00 AM 51 °F 50 °F 93% 30.12 in 6 mi SE 4.6 mph - - Rain Light Rain
8:20 AM 51.8 °F 50.0 °F 94% 30.12 in 6.2 mi ESE 4.6 mph - N/A Rain Light Rain
8:50 AM 50.0 °F 50.0 °F 100% 30.12 in 5.0 mi East 4.6 mph - N/A Rain Light Rain
9:20 AM 50.0 °F 50.0 °F 100% 30.12 in 5.0 mi ENE 4.6 mph - N/A Rain Light Rain
9:50 AM 51.8 °F 50.0 °F 94% 30.15 in 6.2 mi NE 4.6 mph - N/A Rain Light Rain
10:20 AM 51.8 °F 50.0 °F 94% 30.15 in 6.2 mi ENE 4.6 mph - N/A   Mostly Cloudy
10:50 AM 53.6 °F 51.8 °F 94% 30.15 in 6.2 mi East 4.6 mph - N/A   Mostly Cloudy
11:20 AM 53.6 °F 51.8 °F 94% 30.15 in 6.2 mi ESE 6.9 mph - N/A   Mostly Cloudy
11:50 AM 55.4 °F 51.8 °F 88% 30.15 in 6.2 mi ESE 6.9 mph - N/A   Mostly Cloudy
12:20 PM 55.4 °F 51.8 °F 88% 30.15 in 6.2 mi ESE 5.8 mph - N/A   Mostly Cloudy
12:50 PM 53.6 °F 51.8 °F 94% 30.15 in 6.2 mi SSE 8.1 mph - N/A Rain Light Rain
1:20 PM 53.6 °F 51.8 °F 94% 30.15 in 6.2 mi East 4.6 mph - N/A Rain Light Rain
1:50 PM 53.6 °F 51.8 °F 94% 30.15 in 5.0 mi NE 4.6 mph - N/A Rain Light Rain
2:00 PM 53 °F 52 °F 94% 30.17 in 5 mi NE 4.6 mph - - Rain Light Rain
2:20 PM 53.6 °F 51.8 °F 94% 30.15 in 4.3 mi West 6.9 mph - N/A Rain Light Rain
2:50 PM 53.6 °F 51.8 °F 94% 30.15 in 6.2 mi East 4.6 mph - N/A Rain Light Rain
3:20 PM 53.6 °F 51.8 °F 94% 30.15 in 6.2 mi SE 8.1 mph - N/A   Mostly Cloudy
3:50 PM 55.4 °F 51.8 °F 88% 30.12 in 6.2 mi ESE 11.5 mph - N/A   Mostly Cloudy
4:20 PM 55.4 °F 51.8 °F 88% 30.12 in 6.2 mi ESE 9.2 mph - N/A   Mostly Cloudy
4:50 PM 55.4 °F 50.0 °F 82% 30.12 in 6.2 mi ESE 8.1 mph - N/A   Mostly Cloudy
5:20 PM 55.4 °F 50.0 °F 82% 30.12 in 6.2 mi SE 5.8 mph - N/A   Mostly Cloudy
5:50 PM 55.4 °F 50.0 °F 82% 30.15 in 6.2 mi SE 4.6 mph - N/A   Mostly Cloudy
6:20 PM 55.4 °F 50.0 °F 82% 30.15 in 6.2 mi NE 3.5 mph - N/A   Mostly Cloudy
6:50 PM 53.6 °F 50.0 °F 88% 30.12 in 6.2 mi East 3.5 mph - N/A   Mostly Cloudy
7:20 PM 53.6 °F 50.0 °F 88% 30.12 in 6.2 mi Calm Calm - N/A   Mostly Cloudy
7:50 PM 53.6 °F 50.0 °F 88% 30.15 in 6.2 mi Calm Calm - N/A   Mostly Cloudy
8:00 PM 54 °F 50 °F 82% 30.15 in 6 mi Calm Calm - -   Partly Cloudy
8:20 PM 53.6 °F 50.0 °F 88% 30.15 in 6.2 mi Calm Calm - N/A Rain Light Rain
8:50 PM 53.6 °F 50.0 °F 88% 30.15 in 6.2 mi SSE 8.1 mph - N/A Rain Light Rain
9:20 PM 53.6 °F 50.0 °F 88% 30.15 in 6.2 mi ESE 8.1 mph - N/A Rain Light Rain
9:50 PM 53.6 °F 50.0 °F 88% 30.15 in 6.2 mi SE 8.1 mph - N/A Rain Light Rain
10:20 PM 53.6 °F 50.0 °F 88% 30.15 in 6.2 mi ESE 8.1 mph - N/A Rain Light Rain
10:50 PM 51.8 °F 50.0 °F 94% 30.15 in 6.2 mi ESE 6.9 mph - N/A Rain Light Rain
11:20 PM 51.8 °F 50.0 °F 94% 30.15 in 6.2 mi ESE 6.9 mph - N/A Rain Light Rain
11:50 PM 51.8 °F 50.0 °F 94% 30.15 in 6.2 mi ENE 6.9 mph - N/A   Mostly Cloudy